Time,TemperatureF,DewpointF,PressureIn,WindDirection,WindDirectionDegrees,WindSpeedMPH,WindSpeedGustMPH,Humidity,HourlyPrecipIn,Conditions,Clouds,dailyrainin,SoftwareType,DateUTC
2013-04-05 00:01:00,54.0,53.0,30.04,SW,223,0.0,2.0,98,0.00,,,0.00,,2013-04-05 07:01:00,
2013-04-05 00:11:00,54.0,53.0,30.04,SW,223,0.0,2.0,98,0.00,,,0.00,,2013-04-05 07:11:00,
2013-04-05 00:22:00,54.0,53.0,30.04,SW,222,0.0,0.0,97,0.00,,,0.00,,2013-04-05 07:22:00,
2013-04-05 00:31:00,54.0,53.0,30.04,SW,223,0.0,0.0,97,0.00,,,0.00,,2013-04-05 07:31:00,
2013-04-05 00:42:00,54.0,53.0,30.04,SW,223,0.0,0.0,97,0.00,,,0.00,,2013-04-05 07:42:00,
2013-04-05 00:52:00,54.0,53.0,30.04,SW,223,0.0,0.0,97,0.00,,,0.00,,2013-04-05 07:52:00,
2013-04-05 01:02:00,54.0,53.0,30.04,SW,223,0.0,0.0,97,0.00,,,0.00,,2013-04-05 08:02:00,
2013-04-05 01:12:00,54.0,53.0,30.04,SW,223,0.0,0.0,97,0.00,,,0.00,,2013-04-05 08:12:00,
2013-04-05 01:23:00,54.0,53.0,30.04,SW,222,0.0,0.0,98,0.00,,,0.00,,2013-04-05 08:23:00,
2013-04-05 01:33:00,54.0,53.0,30.04,SW,222,0.0,0.0,97,0.00,,,0.00,,2013-04-05 08:33:00,
2013-04-05 01:43:00,54.0,53.0,30.04,SW,222,0.0,0.0,97,0.00,,,0.00,,2013-04-05 08:43:00,
2013-04-05 01:52:00,53.0,52.0,30.04,SW,222,0.0,2.0,98,0.00,,,0.00,,2013-04-05 08:52:00,
2013-04-05 02:02:00,53.0,52.0,30.04,SW,223,0.0,0.0,98,0.00,,,0.00,,2013-04-05 09:02:00,
2013-04-05 02:11:00,53.0,52.0,30.04,SW,223,0.0,0.0,98,0.00,,,0.00,,2013-04-05 09:11:00,
2013-04-05 02:22:00,53.0,52.0,30.03,SW,223,0.0,0.0,98,0.00,,,0.00,,2013-04-05 09:22:00,
2013-04-05 02:32:00,53.0,52.0,30.03,SW,223,0.0,1.0,98,0.00,,,0.00,,2013-04-05 09:32:00,
2013-04-05 02:42:00,53.0,52.0,30.03,SW,223,0.0,1.0,98,0.00,,,0.00,,2013-04-05 09:42:00,
2013-04-05 02:52:00,53.0,52.0,30.03,SW,222,0.0,0.0,98,0.00,,,0.00,,2013-04-05 09:52:00,
2013-04-05 03:02:00,53.0,52.0,30.03,SW,223,0.0,3.0,98,0.00,,,0.00,,2013-04-05 10:02:00,
2013-04-05 03:12:00,53.0,52.0,30.03,SW,223,0.0,3.0,98,0.00,,,0.00,,2013-04-05 10:12:00,
2013-04-05 03:23:00,53.0,52.0,30.03,SW,222,1.0,3.0,98,0.00,,,0.00,,2013-04-05 10:23:00,
2013-04-05 03:32:00,53.0,52.0,30.03,SW,223,1.0,2.0,98,0.00,,,0.00,,2013-04-05 10:32:00,
2013-04-05 03:42:00,53.0,52.0,30.03,SW,223,1.0,2.0,98,0.00,,,0.00,,2013-04-05 10:42:00,
2013-04-05 03:52:00,53.0,52.0,30.03,SW,223,0.0,0.0,98,0.00,,,0.00,,2013-04-05 10:52:00,
2013-04-05 04:02:00,53.0,52.0,30.03,SW,222,0.0,0.0,98,0.00,,,0.00,,2013-04-05 11:02:00,
2013-04-05 04:12:00,53.0,52.0,30.03,SW,222,0.0,0.0,98,0.00,,,0.00,,2013-04-05 11:12:00,
2013-04-05 04:21:00,53.0,52.0,30.03,SW,223,0.0,0.0,98,0.00,,,0.00,,2013-04-05 11:21:00,
2013-04-05 04:32:00,52.0,51.0,30.03,SW,223,0.0,1.0,98,0.00,,,0.00,,2013-04-05 11:32:00,
2013-04-05 04:42:00,52.0,51.0,30.03,SW,223,0.0,1.0,98,0.00,,,0.00,,2013-04-05 11:42:00,
2013-04-05 04:52:00,52.0,51.0,30.03,SW,223,0.0,0.0,98,0.00,,,0.00,,2013-04-05 11:52:00,
2013-04-05 05:02:00,52.0,51.0,30.03,SW,222,0.0,0.0,98,0.00,,,0.00,,2013-04-05 12:02:00,
2013-04-05 05:11:00,52.0,51.0,30.03,SW,222,0.0,0.0,98,0.00,,,0.00,,2013-04-05 12:11:00,
2013-04-05 05:22:00,52.0,51.0,30.03,SW,222,0.0,1.0,98,0.00,,,0.00,,2013-04-05 12:22:00,
2013-04-05 05:32:00,52.0,52.0,30.03,SW,223,0.0,1.0,99,0.00,,,0.00,,2013-04-05 12:32:00,
2013-04-05 05:42:00,52.0,52.0,30.03,SW,223,0.0,1.0,99,0.00,,,0.00,,2013-04-05 12:42:00,
2013-04-05 05:52:00,52.0,52.0,30.03,SW,223,0.0,0.0,99,0.00,,,0.00,,2013-04-05 12:52:00,
2013-04-05 06:01:00,52.0,52.0,30.03,SW,222,0.0,0.0,99,0.00,,,0.00,,2013-04-05 13:01:00,
2013-04-05 06:11:00,52.0,52.0,30.03,SW,222,0.0,0.0,99,0.00,,,0.00,,2013-04-05 13:11:00,
2013-04-05 06:21:00,52.0,52.0,30.03,SW,223,0.0,1.0,99,0.00,,,0.00,,2013-04-05 13:21:00,
2013-04-05 06:32:00,51.0,51.0,30.03,SW,223,0.0,3.0,99,0.00,,,0.00,,2013-04-05 13:32:00,
2013-04-05 06:42:00,51.0,51.0,30.03,SW,223,0.0,3.0,99,0.00,,,0.00,,2013-04-05 13:42:00,
2013-04-05 06:52:00,51.0,51.0,30.03,SW,223,0.0,1.0,99,0.00,,,0.00,,2013-04-05 13:52:00,
2013-04-05 07:12:00,51.0,51.0,30.04,SW,222,0.0,0.0,99,0.00,,,0.00,,2013-04-05 14:12:00,
2013-04-05 07:22:00,51.0,51.0,30.04,SW,222,0.0,0.0,99,0.00,,,0.00,,2013-04-05 14:22:00,
2013-04-05 07:42:00,51.0,51.0,30.05,SW,222,1.0,2.0,99,0.00,,,0.00,,2013-04-05 14:42:00,
2013-04-05 07:53:00,51.0,51.0,30.06,SW,223,0.0,0.0,100,0.00,,,0.00,,2013-04-05 14:53:00,
2013-04-05 08:01:00,51.0,51.0,30.06,SW,223,1.0,4.0,99,0.00,,,0.00,,2013-04-05 15:01:00,
2013-04-05 08:11:00,51.0,51.0,30.06,SW,223,1.0,4.0,99,0.00,,,0.00,,2013-04-05 15:11:00,
2013-04-05 08:22:00,51.0,51.0,30.06,SW,223,2.0,2.0,100,0.00,,,0.00,,2013-04-05 15:22:00,
2013-04-05 08:32:00,51.0,51.0,30.06,SW,223,0.0,2.0,100,0.00,,,0.00,,2013-04-05 15:32:00,
2013-04-05 08:42:00,51.0,51.0,30.06,SW,223,0.0,2.0,100,0.00,,,0.00,,2013-04-05 15:42:00,
2013-04-05 08:53:00,52.0,52.0,30.07,SW,223,0.0,1.0,100,0.00,,,0.00,,2013-04-05 15:53:00,
2013-04-05 09:02:00,52.0,52.0,30.07,SW,222,0.0,0.0,100,0.00,,,0.00,,2013-04-05 16:02:00,
2013-04-05 09:12:00,52.0,52.0,30.07,SW,222,0.0,0.0,100,0.00,,,0.00,,2013-04-05 16:12:00,
2013-04-05 09:22:00,53.0,52.0,30.07,SW,222,1.0,3.0,98,0.00,,,0.00,,2013-04-05 16:22:00,
2013-04-05 09:32:00,53.0,52.0,30.07,SW,223,0.0,2.0,98,0.00,,,0.00,,2013-04-05 16:32:00,
2013-04-05 09:42:00,53.0,52.0,30.07,SW,223,0.0,2.0,98,0.00,,,0.00,,2013-04-05 16:42:00,
2013-04-05 09:52:00,54.0,53.0,30.07,SW,222,0.0,3.0,97,0.00,,,0.00,,2013-04-05 16:52:00,
2013-04-05 10:02:00,55.0,54.0,30.07,SW,223,0.0,2.0,97,0.00,,,0.00,,2013-04-05 17:02:00,
2013-04-05 10:12:00,55.0,54.0,30.07,SW,223,0.0,2.0,97,0.00,,,0.00,,2013-04-05 17:12:00,
2013-04-05 10:22:00,56.0,54.0,30.07,SW,223,2.0,4.0,94,0.00,,,0.00,,2013-04-05 17:22:00,
2013-04-05 10:32:00,56.0,54.0,30.07,SW,222,0.0,4.0,93,0.00,,,0.00,,2013-04-05 17:32:00,
2013-04-05 10:44:00,56.0,54.0,30.07,SW,222,0.0,4.0,93,0.00,,,0.00,,2013-04-05 17:44:00,
2013-04-05 10:52:00,57.0,54.0,30.07,SW,223,0.0,1.0,91,0.00,,,0.00,,2013-04-05 17:52:00,
2013-04-05 11:01:00,58.0,55.0,30.07,SW,222,0.0,1.0,90,0.00,,,0.00,,2013-04-05 18:01:00,
2013-04-05 11:12:00,58.0,55.0,30.07,SW,222,0.0,1.0,90,0.00,,,0.00,,2013-04-05 18:12:00,
2013-04-05 11:22:00,58.0,55.0,30.08,ESE,103,0.0,3.0,89,0.00,,,0.00,,2013-04-05 18:22:00,
2013-04-05 11:32:00,59.0,55.0,30.08,ESE,106,3.0,4.0,86,0.00,,,0.00,,2013-04-05 18:32:00,
2013-04-05 11:42:00,59.0,55.0,30.08,ESE,106,3.0,4.0,86,0.00,,,0.00,,2013-04-05 18:42:00,
2013-04-05 11:52:00,61.0,55.0,30.07,SSW,192,2.0,5.0,81,0.00,,,0.00,,2013-04-05 18:52:00,
2013-04-05 12:02:00,61.0,55.0,30.06,SSW,200,0.0,5.0,81,0.00,,,0.00,,2013-04-05 19:02:00,
2013-04-05 12:12:00,61.0,55.0,30.06,SSW,200,0.0,5.0,81,0.00,,,0.00,,2013-04-05 19:12:00,
2013-04-05 12:22:00,62.0,56.0,30.06,SW,227,2.0,5.0,81,0.00,,,0.00,,2013-04-05 19:22:00,
2013-04-05 12:32:00,62.0,56.0,30.06,SW,227,2.0,5.0,81,0.00,,,0.00,,2013-04-05 19:32:00,
2013-04-05 12:41:00,62.0,56.0,30.06,SW,227,2.0,5.0,81,0.00,,,0.00,,2013-04-05 19:41:00,
2013-04-05 12:52:00,62.0,56.0,30.06,SW,227,2.0,5.0,81,0.00,,,0.00,,2013-04-05 19:52:00,
2013-04-05 13:02:00,62.0,56.0,30.06,SW,227,2.0,5.0,81,0.00,,,0.00,,2013-04-05 20:02:00,
2013-04-05 13:22:00,67.0,56.0,30.03,WSW,237,2.0,4.0,67,0.00,,,0.00,,2013-04-05 20:22:00,
2013-04-05 13:32:00,67.0,56.0,30.03,WSW,237,2.0,4.0,67,0.00,,,0.00,,2013-04-05 20:32:00,
2013-04-05 13:42:00,67.0,56.0,30.03,WSW,237,2.0,4.0,67,0.00,,,0.00,,2013-04-05 20:42:00,
2013-04-05 13:51:00,70.0,56.0,30.01,WSW,249,1.0,8.0,62,0.00,,,0.00,,2013-04-05 20:51:00,
2013-04-05 14:02:00,71.0,57.0,30.01,SW,221,3.0,6.0,62,0.00,,,0.00,,2013-04-05 21:02:00,
2013-04-05 14:12:00,71.0,57.0,30.01,SW,221,3.0,6.0,62,0.00,,,0.00,,2013-04-05 21:12:00,
2013-04-05 14:22:00,70.0,56.0,30.01,SW,214,4.0,10.0,62,0.00,,,0.00,,2013-04-05 21:22:00,
2013-04-05 14:32:00,71.0,57.0,30.01,South,175,4.0,9.0,62,0.00,,,0.00,,2013-04-05 21:32:00,
2013-04-05 14:42:00,71.0,57.0,30.01,South,175,4.0,9.0,62,0.00,,,0.00,,2013-04-05 21:42:00,
2013-04-05 14:53:00,69.0,57.0,30.01,SW,235,2.0,9.0,65,0.00,,,0.00,,2013-04-05 21:53:00,
2013-04-05 15:02:00,69.0,56.0,30.00,WSW,247,4.0,9.0,64,0.00,,,0.00,,2013-04-05 22:02:00,
2013-04-05 15:12:00,69.0,56.0,30.00,WSW,247,4.0,9.0,64,0.00,,,0.00,,2013-04-05 22:12:00,
2013-04-05 15:22:00,68.0,57.0,30.00,SSW,203,2.0,11.0,67,0.00,,,0.00,,2013-04-05 22:22:00,
2013-04-05 15:32:00,69.0,56.0,29.99,SW,225,3.0,8.0,64,0.00,,,0.00,,2013-04-05 22:32:00,
2013-04-05 15:42:00,69.0,56.0,29.99,SW,225,3.0,8.0,64,0.00,,,0.00,,2013-04-05 22:42:00,
2013-04-05 15:52:00,69.0,57.0,29.99,SSW,196,0.0,9.0,65,0.00,,,0.00,,2013-04-05 22:52:00,
2013-04-05 16:02:00,69.0,56.0,29.98,WSW,240,4.0,8.0,64,0.00,,,0.00,,2013-04-05 23:02:00,
2013-04-05 16:12:00,69.0,56.0,29.98,WSW,240,4.0,8.0,64,0.00,,,0.00,,2013-04-05 23:12:00,
2013-04-05 16:32:00,69.0,57.0,29.96,SSW,209,2.0,6.0,65,0.00,,,0.00,,2013-04-05 23:32:00,
2013-04-05 16:42:00,69.0,57.0,29.96,SSW,209,2.0,6.0,65,0.00,,,0.00,,2013-04-05 23:42:00,
2013-04-05 16:52:00,69.0,57.0,29.96,West,280,0.0,9.0,66,0.00,,,0.00,,2013-04-05 23:52:00,
2013-04-05 17:02:00,70.0,57.0,29.96,SW,214,1.0,7.0,64,0.00,,,0.00,,2013-04-06 00:02:00,
2013-04-05 17:12:00,70.0,57.0,29.96,SW,214,1.0,7.0,64,0.00,,,0.00,,2013-04-06 00:12:00,
2013-04-05 17:22:00,70.0,57.0,29.96,SW,217,1.0,5.0,64,0.00,,,0.00,,2013-04-06 00:22:00,
2013-04-05 17:32:00,69.0,57.0,29.96,ENE,57,0.0,2.0,65,0.00,,,0.00,,2013-04-06 00:32:00,
2013-04-05 17:42:00,69.0,57.0,29.96,ENE,57,0.0,2.0,65,0.00,,,0.00,,2013-04-06 00:42:00,
2013-04-05 17:52:00,69.0,55.0,29.96,SW,216,0.0,5.0,62,0.00,,,0.00,,2013-04-06 00:52:00,
2013-04-05 18:01:00,70.0,57.0,29.95,SSW,211,0.0,5.0,64,0.00,,,0.00,,2013-04-06 01:01:00,
2013-04-05 18:12:00,69.0,57.0,29.95,SW,214,2.0,4.0,65,0.00,,,0.00,,2013-04-06 01:12:00,
2013-04-05 18:22:00,69.0,57.0,29.95,SW,214,2.0,4.0,65,0.00,,,0.00,,2013-04-06 01:22:00,
2013-04-05 18:32:00,68.0,57.0,29.95,SW,218,0.0,4.0,67,0.00,,,0.00,,2013-04-06 01:32:00,
2013-04-05 18:42:00,68.0,57.0,29.95,SW,218,0.0,4.0,67,0.00,,,0.00,,2013-04-06 01:42:00,
2013-04-05 18:53:00,65.0,56.0,29.96,South,191,1.0,6.0,72,0.00,,,0.00,,2013-04-06 01:53:00,
2013-04-05 19:01:00,64.0,55.0,29.96,South,191,0.0,3.0,73,0.00,,,0.00,,2013-04-06 02:01:00,
2013-04-05 19:11:00,64.0,55.0,29.96,South,191,0.0,3.0,73,0.00,,,0.00,,2013-04-06 02:11:00,
2013-04-05 19:22:00,64.0,56.0,29.95,SSW,192,0.0,1.0,75,0.00,,,0.00,,2013-04-06 02:22:00,
2013-04-05 19:32:00,63.0,55.0,29.95,South,191,0.0,0.0,75,0.00,,,0.00,,2013-04-06 02:32:00,
2013-04-05 19:42:00,63.0,55.0,29.95,South,191,0.0,0.0,75,0.00,,,0.00,,2013-04-06 02:42:00,
2013-04-05 19:52:00,62.0,55.0,29.96,WSW,240,0.0,3.0,79,0.00,,,0.00,,2013-04-06 02:52:00,
2013-04-05 20:02:00,61.0,55.0,29.96,WSW,240,0.0,0.0,81,0.00,,,0.00,,2013-04-06 03:02:00,
2013-04-05 20:11:00,61.0,55.0,29.96,WSW,240,0.0,0.0,81,0.00,,,0.00,,2013-04-06 03:11:00,
2013-04-05 20:21:00,60.0,55.0,29.97,WSW,240,0.0,0.0,83,0.00,,,0.00,,2013-04-06 03:21:00,
2013-04-05 20:32:00,60.0,55.0,29.97,WSW,240,1.0,1.0,83,0.00,,,0.00,,2013-04-06 03:32:00,
2013-04-05 20:42:00,60.0,55.0,29.97,WSW,240,1.0,1.0,83,0.00,,,0.00,,2013-04-06 03:42:00,
2013-04-05 20:53:00,60.0,55.0,29.98,NE,49,0.0,3.0,83,0.00,,,0.00,,2013-04-06 03:53:00,
2013-04-05 21:02:00,60.0,55.0,29.98,NE,49,0.0,3.0,83,0.00,,,0.00,,2013-04-06 04:02:00,
2013-04-05 21:13:00,60.0,55.0,29.98,NE,49,0.0,3.0,83,0.00,,,0.00,,2013-04-06 04:13:00,
2013-04-05 21:22:00,58.0,54.0,29.99,NE,50,0.0,0.0,86,0.00,,,0.00,,2013-04-06 04:22:00,
2013-04-05 21:32:00,57.0,53.0,30.00,NE,50,0.0,0.0,88,0.00,,,0.00,,2013-04-06 04:32:00,
2013-04-05 21:43:00,57.0,53.0,30.00,NE,50,0.0,0.0,88,0.00,,,0.00,,2013-04-06 04:43:00,
2013-04-05 21:52:00,57.0,54.0,30.00,NE,49,0.0,1.0,89,0.00,,,0.00,,2013-04-06 04:52:00,
2013-04-05 22:01:00,57.0,54.0,30.00,NE,49,0.0,1.0,89,0.00,,,0.00,,2013-04-06 05:01:00,
2013-04-05 22:12:00,57.0,54.0,30.00,NE,49,0.0,1.0,89,0.00,,,0.00,,2013-04-06 05:12:00,
2013-04-05 22:22:00,56.0,53.0,30.01,NE,48,0.0,1.0,90,0.00,,,0.00,,2013-04-06 05:22:00,
2013-04-05 22:32:00,56.0,53.0,30.01,NE,49,0.0,0.0,91,0.00,,,0.00,,2013-04-06 05:32:00,
2013-04-05 22:43:00,56.0,53.0,30.01,NE,49,0.0,0.0,91,0.00,,,0.00,,2013-04-06 05:43:00,
2013-04-05 22:52:00,55.0,53.0,30.01,South,171,0.0,5.0,93,0.00,,,0.00,,2013-04-06 05:52:00,
2013-04-05 23:02:00,55.0,53.0,30.01,South,171,0.0,3.0,93,0.00,,,0.00,,2013-04-06 06:02:00,
2013-04-05 23:11:00,55.0,53.0,30.01,South,171,0.0,3.0,93,0.00,,,0.00,,2013-04-06 06:11:00,
2013-04-05 23:22:00,55.0,53.0,30.01,South,171,0.0,3.0,93,0.00,,,0.00,,2013-04-06 06:22:00,
2013-04-05 23:32:00,56.0,53.0,30.00,East,93,1.0,5.0,90,0.00,,,0.00,,2013-04-06 06:32:00,
2013-04-05 23:42:00,56.0,53.0,30.00,East,93,1.0,5.0,90,0.00,,,0.00,,2013-04-06 06:42:00,
2013-04-05 23:52:00,55.0,52.0,30.00,ENE,69,2.0,4.0,90,0.00,,,0.00,,2013-04-06 06:52:00,